Lamoni, IA

8:28 PM CDT on September 24, 2016 (GMT -0500)
Lamoni Municipal

Weather History for KLWD - August, 2012

Change the Weather History Date:

Wednesday, August 1, 2012

  Actual Average Record
Temperature  
Mean Temperature 85 °F 75 °F  
Max Temperature 99 °F 85 °F 101 °F (1980)
Min Temperature 70 °F 66 °F 56 °F (1968)
Degree Days  
Heating Degree Days 0 0  
Month to date heating degree days 0 0  
Since 1 June heating degree days 10 21  
Since 1 July heating degree days 0 2  
Cooling Degree Days 20 10  
Month to date cooling degree days 20 10  
Year to date cooling degree days 956 573  
Since 1 June cooling degree days 799 519  
Growing Degree Days 34 (Base 50)    
Moisture  
Dew Point 58 °F    
Average Humidity 46    
Maximum Humidity 73    
Minimum Humidity 18    
Precipitation  
Precipitation 0.00 in 0.13 in 2.45 in (2016)
Month to date precipitation 0.00 0.13  
Year to date precipitation 17.03  
Sea Level Pressure  
Sea Level Pressure 29.89 in    
Wind  
Wind Speed 5 mph (ESE)    
Max Wind Speed 8 mph    
Max Gust Speed -    
Visibility 10 miles    
Events      
T = Trace of Precipitation, MM = Missing Value Source: NWS Daily Summary

Daily Weather History Graph

Daily Weather History Graph

Search for Another Location

Airport or City:

Trip Planner

Search our weather history database for the weather conditions in past years. The results will help you decide how hot, cold, wet, or windy it might be!

Date:

Astronomy

Aug. 01, 2012 Rise Set
Actual Time 6:12 AM CDT 8:30 PM CDT
Civil Twilight 5:42 AM CDT 9:00 PM CDT
Nautical Twilight 5:04 AM CDT 9:38 PM CDT
Astronomical Twilight 4:22 AM CDT 10:19 PM CDT
Moon 8:00 PM CDT (8/1) 5:43 AM CDT (8/1)
Length of Visible Light 15h 18m
Length of Day
14h 17m
Full, 100% of the Moon is Illuminated
Aug 1
Full
Aug 1
Full
Aug 9
Last Quarter
Aug 17
New
Aug 24
First Quarter

Hourly Weather History & Observations

Time (CDT) Temp. Heat Index Dew Point Humidity Pressure Visibility Wind Dir Wind Speed Gust Speed Precip Events Conditions
12:53 AM 75.0 °F - 62.1 °F 64% 29.97 in 10.0 mi ENE 4.6 mph - 0.01 in   Clear
1:53 AM 73.0 °F - 63.0 °F 71% 29.97 in 10.0 mi East 3.5 mph - N/A   Clear
2:53 AM 72.0 °F - 62.1 °F 71% 29.93 in 10.0 mi ENE 4.6 mph - 0.01 in   Clear
3:53 AM 71.1 °F - 62.1 °F 73% 29.93 in 10.0 mi ENE 3.5 mph - N/A   Clear
4:53 AM 72.0 °F - 61.0 °F 68% 29.93 in 10.0 mi East 3.5 mph - N/A   Clear
5:53 AM 71.1 °F - 61.0 °F 70% 29.93 in 10.0 mi SE 3.5 mph - N/A   Clear
6:53 AM 71.1 °F - 61.0 °F 70% 29.92 in 10.0 mi ESE 3.5 mph - N/A   Clear
7:53 AM 73.9 °F - 62.1 °F 66% 29.93 in 10.0 mi Variable 3.5 mph - N/A   Clear
8:53 AM 79.0 °F - 62.1 °F 56% 29.94 in 10.0 mi East 8.1 mph - N/A   Clear
9:53 AM 82.9 °F 83.7 °F 62.1 °F 49% 29.94 in 10.0 mi SE 4.6 mph - N/A   Clear
10:53 AM 86.0 °F 86.3 °F 62.1 °F 44% 29.93 in 10.0 mi Variable 6.9 mph - N/A   Clear
11:53 AM 90.0 °F 89.1 °F 59.0 °F 35% 29.93 in 10.0 mi SSE 6.9 mph - N/A   Clear
12:53 PM 91.9 °F 92.9 °F 63.0 °F 38% 29.90 in 10.0 mi ESE 6.9 mph - 0.06 in   Clear
1:53 PM 95.0 °F 95.2 °F 61.0 °F 32% 29.88 in 10.0 mi SE 3.5 mph - 0.25 in   Clear
2:53 PM 97.0 °F 95.3 °F 55.9 °F 25% 29.86 in 10.0 mi Calm Calm - 0.24 in   Clear
3:53 PM 98.1 °F 95.7 °F 53.1 °F 22% 29.85 in 10.0 mi Variable 4.6 mph - 0.21 in   Clear
4:53 PM 98.1 °F - 51.1 °F 20% 29.83 in 10.0 mi Variable 5.8 mph - 0.16 in   Clear
5:53 PM 98.1 °F - 48.0 °F 18% 29.82 in 10.0 mi Variable 4.6 mph - 0.10 in   Clear
6:53 PM 97.0 °F - 51.1 °F 21% 29.81 in 10.0 mi SE 5.8 mph - N/A   Clear
7:53 PM 93.0 °F 90.8 °F 54.0 °F 27% 29.80 in 10.0 mi SSE 4.6 mph - N/A   Clear
8:53 PM 90.0 °F 87.5 °F 53.1 °F 28% 29.81 in 10.0 mi SE 4.6 mph - N/A   Clear
9:53 PM 84.9 °F 83.6 °F 55.0 °F 36% 29.84 in 10.0 mi East 4.6 mph - 0.01 in   Clear
10:53 PM 82.9 °F 82.1 °F 55.9 °F 39% 29.84 in 10.0 mi ESE 3.5 mph - 0.01 in   Clear